STARLINK-38410, 100633

Orbit data source: Space-Track

STARLINK-38410, 100633 is a payload satellite owned by SpaceX/Seattle (US) in LEO that was launched on Sun, 06 Sep 2026 UTC launched from the Air Force Western Test Range (AFWTR). Payload-class satellites include a variety of spacecraft equipped with specific instruments for various scientific and technological missions. These include communications satellites like Starlink; space stations such as the ISS; scientific satellites like the Hubble; Earth observation satellites from companies like Planet Labs, Umbra, and HawkEye 360; GPS; miniature CubeSats for education and research; and military/defense satellites.

Not visible in the next 10 days
Identifier
100633, 2026-204U
Orbit
LEO
Country
Flag of USUS
Related business
Manufacturer
SpaceX/Seattle
Mission
Operational spacecraft
Bus & Motor
STARLINK V2MO, Unknown motor
Mass
575 kg wet, ~530 kg dry
Launch date (UTC)
2026-09-06 (5 days ago)
Launch vehicle
Unknown
Launch site
Air Force Western Test Range (AFWTR)
Object type
Payload
Rocket body
Debris
Shape & HBR
BOX + PAN, 17.7 m
Radar Cross Section
RCS unknown

Expand to show TLE details & history
Last TLE update: 20 hours ago

TLE from 20 hours ago
0 STARLINK-38410
1 A0633U          26253.56848799 -.01164228  43728-3 -22238-2 0  9998
2 A0633  69.9975 266.2489 0004975 272.4481  87.6160 16.00413860   646
Epoch: 2026-09-10T13:38Z
TLE epoch observation values (Epoch: 2026-09-10T13:38:37.362Z)
Latitude
-0.00007°
Longitude
71.98888°
Altitude
275.668 km
Speed
7.742 km/s
True Right ascension
17h 44m 59s
True Declination
0° 00' 00"
Sunlit
Object was in daylight at epoch
Visualization orbit readout
Latitude
Unknown
Longitude
Unknown
Altitude
Unknown
Speed
Unknown
Apparent Right ascension
Unknown
Apparent Declination
Unknown
Sunlit
N/A
Visualization observer readout
Local Sidereal Time
02:29:41
Azimuth
Unknown
Elevation
Unknown
Doppler factor
Unknown
Orbital elements
Apogee altitude
274.436 km
Perigee altitude
267.82 km
Semi-major axis
6,649.265 km
Eccentricity
0.0005
Inclination
69.9975°
RAAN
266.2489°
Arg. of periapsis
272.4481°
True anomaly
87.67296°
Mean anomaly
87.616°
Eccentric anomaly
87.64448°
Mean motion
4.00297 °/min
Orbital period
89.93 mins
BSTAR
-0.0022238
Loading maneuver chart data...
Computing Atmospheric mass density...
Loading historical data...
Loading historical data...
Loading historical data...
Loading historical data...
Loading historical data...
Loading historical data...
Loading historical data...

Documentation

Showing up to 5 results
|